This is the latest recevied weather packets stored in our database for station/object SPDRWX. If no packets are shown the sender has not sent any weather packets the latest 10 day(s).
| Time | Temp. | Humidity | Pressure | Rain* | Wind** | Luminosity | Snow |
|---|---|---|---|---|---|---|---|
| 1777927100 | 4.44° C | 75% | 1009.4 hPa | 2.03 mm | - | - | - |
| 1777926800 | 4.44° C | 75% | 1009.4 hPa | 2.03 mm | - | - | - |
| 1777925897 | 4.44° C | 75% | 1009.4 hPa | 2.03 mm | - | - | - |
| 1777925294 | 4.44° C | 75% | 1009.5 hPa | 1.78 mm | - | - | - |
| 1777924696 | 5° C | 75% | 1009.5 hPa | 1.52 mm | - | - | - |
| 1777924087 | 5° C | 74% | 1009.4 hPa | 1.27 mm | - | - | - |
| 1777923486 | 5° C | 74% | 1009.2 hPa | 1.27 mm | - | - | - |
| 1777922884 | 5° C | 74% | 1009.2 hPa | 1.02 mm | - | - | - |
| 1777921980 | 5.56° C | 73% | 1009.3 hPa | 0.51 mm | - | - | - |
| 1777921778 | 5.56° C | 73% | 1009.5 hPa | 0.51 mm | - | - | - |
| 1777921669 | 5.56° C | 73% | 1009.4 hPa | 0.51 mm | - | - | - |
| 1777921063 | 6.11° C | 73% | 1009.3 hPa | 0.25 mm | - | - | - |
| 1777920475 | 6.11° C | 73% | 1009.4 hPa | 0 mm | - | - | - |
| 1777918656 | 6.11° C | 73% | 1009.4 hPa | 6.6 mm | - | - | - |
| 1777917752 | 6.11° C | 73% | 1009.3 hPa | 6.6 mm | - | - | - |
| 1777916243 | 6.11° C | 73% | 1009.1 hPa | 6.6 mm | - | - | - |
| 1777915039 | 6.11° C | 73% | 1009.1 hPa | 6.6 mm | - | - | - |
| 1777914747 | 6.11° C | 73% | 1009 hPa | 6.6 mm | - | - | - |
| 1777914474 | 6.11° C | 73% | 1009.1 hPa | 6.6 mm | - | - | - |
| 1777914140 | 6.11° C | 73% | 1009.1 hPa | 6.6 mm | - | - | - |
| 1777913833 | 6.11° C | 73% | 1009.1 hPa | 6.6 mm | - | - | - |
| 1777913533 | 6.11° C | 73% | 1009.1 hPa | 6.6 mm | - | - | - |
| 1777912930 | 6.11° C | 73% | 1009.1 hPa | 6.6 mm | - | - | - |
| 1777912648 | 6.11° C | 73% | 1009.1 hPa | 6.6 mm | - | - | - |
| 1777912330 | 6.11° C | 73% | 1009.1 hPa | 6.6 mm | - | - | - |
* Rain since midnight (hover to see other rain measurements)
** Current wind speed in m/s (hover to see current wind gust speed)